Content
SEND FEEDBACK

Daily
Averages
Monthly
Summary
United States of America

MANGILAO, GUAM


Home > North America > United States > Guam
Elevation: 60 feet     Latitude: 13 27N     Longitude: 144 49E

WEATHER
 
SELECT A DAY
Number of Records: 341,964;   Date Range: 1/1/95 - 7/26/14
 
SHARE

PRINT THIS DATA

[ ← Previous Day ]
WEATHER ALMANAC - OCTOBER 25, 2013
[ Next Day → ]
[ °C ]   °F
Weather ElementAverageHighLow
Temperature80.5 °F86 °F (11:53 am)74.8 °F (11:58 pm)
Dewpoint74.7 °F77.5 °F (12:58 pm)35.6 °F (8:58 pm)
Humidity83.7 %98 % (1:58 am)23 % (8:58 pm)
Barometer29.81 in29.86 in (9:03 am)29.72 in (1:58 am)
Wind Speed5.1 mph8.1 mph (8:58 am)
Weather ElementAverage
Visibility9.8 mi
Wind DirectionS (177.6 °)

Weather ElementTotal
Precipitation0.11 in
Cooling Degree Days15.4 (Base 65)
Growing Degree Days30.4 (Base 50)
Averaged from 58 records on October 25, 2013
WEATHER CONDITIONS BREAKOUT
WIND DIRECTION BREAKOUT
WEATHER BY HOUR - OCTOBER 25, 2013
[ °C ]   °F
Local TimeTemperatureDewpointHumidityBarometerVisibilityWind DirectionWind SpeedGust SpeedPrecipitationEventsConditions
1:06 AM78.8 °F75.2 °F89 %29.76 in10.0 miWSW (250°)5.8 mphRainLight Rain
1:15 AM78.8 °F75.2 °F89 %29.76 in10.0 miWSW (240°)5.8 mphPartly Cloudy
1:58 AM76.3 °F75.7 °F98 %29.72 in10.0 miWSW (250°)5.8 mph0.00 inClear
2:58 AM76.3 °F75.7 °F98 %29.72 in10.0 miWest (260°)4.6 mphClear
3:58 AM75.6 °F74.8 °F98 %29.72 in10.0 miWSW (250°)3.5 mphClear
4:58 AM76.8 °F76.3 °F98 %29.73 in10.0 miWest (260°)6.9 mphMostly Cloudy
5:58 AM76.6 °F75.7 °F97 %29.75 in10.0 miWest (280°)3.5 mphClear
6:58 AM77.0 °F76.5 °F98 %29.78 in10.0 miWest (260°)3.5 mphPartly Cloudy
7:58 AM78.8 °F76.6 °F93 %29.81 in10.0 miWest (260°)5.8 mphClear
8:44 AM80.6 °F75.2 °F84 %29.85 in10.0 miWest (270°)6.9 mphMostly Cloudy
8:49 AM80.6 °F77.0 °F89 %29.85 in10.0 miWest (270°)5.8 mphMostly Cloudy
8:54 AM80.6 °F77.0 °F89 %29.85 in10.0 miWest (270°)6.9 mphMostly Cloudy
8:58 AM80.2 °F76.1 °F87 %29.83 in10.0 miWest (280°)8.1 mphMostly Cloudy
9:03 AM80.6 °F77.0 °F89 %29.86 in10.0 miWNW (290°)8.1 mphMostly Cloudy
9:13 AM80.6 °F75.2 °F84 %29.86 in10.0 miWNW (290°)6.9 mphMostly Cloudy
9:18 AM80.6 °F75.2 °F84 %29.86 in10.0 miWest (280°)6.9 mphMostly Cloudy
9:58 AM84.2 °F75.6 °F75 %29.83 in10.0 miWest (270°)5.8 mphScattered Clouds
10:13 AM84.2 °F75.2 °F74 %29.86 in10.0 miWest (280°)5.8 mphMostly Cloudy
10:43 AM84.2 °F75.2 °F74 %29.86 in10.0 miWSW (250°)3.5 mphMostly Cloudy
10:48 AM84.2 °F75.2 °F74 %29.85 in10.0 miWest (280°)8.1 mphMostly Cloudy
10:58 AM84.4 °F74.5 °F72 %29.82 in10.0 miWest (260°)5.8 mphScattered Clouds
11:08 AM84.2 °F75.2 °F74 %29.85 in10.0 miWest (280°)5.8 mphMostly Cloudy
11:18 AM84.2 °F75.2 °F74 %29.84 in10.0 miWest (280°)3.5 mphScattered Clouds
11:28 AM84.2 °F75.2 °F74 %29.84 in10.0 miVariable1.2 mphMostly Cloudy
11:53 AM86.0 °F75.2 °F70 %29.83 in10.0 miESE (120°)5.8 mphMostly Cloudy
11:58 AM85.6 °F74.7 °F70 %29.81 in10.0 miESE (120°)5.8 mphMostly Cloudy
12:03 PM86.0 °F73.4 °F66 %29.83 in10.0 miESE (110°)4.6 mphMostly Cloudy
12:08 PM86.0 °F73.4 °F66 %29.83 in10.0 miEast (90°)5.8 mphMostly Cloudy
12:18 PM86.0 °F77.0 °F74 %29.83 in10.0 miEast (100°)5.8 mphMostly Cloudy
12:28 PM84.2 °F73.4 °F70 %29.82 in10.0 miESE (110°)8.1 mphMostly Cloudy
12:33 PM86.0 °F75.2 °F70 %29.82 in10.0 miEast (100°)8.1 mphMostly Cloudy
12:58 PM82.9 °F77.5 °F84 %29.78 in10.0 miEast (90°)3.5 mphMostly Cloudy
1:03 PM82.4 °F77.0 °F84 %29.81 in10.0 miESE (120°)5.8 mphMostly Cloudy
1:18 PM82.4 °F77.0 °F84 %29.80 in10.0 miESE (110°)5.8 mphMostly Cloudy
1:23 PM80.6 °F77.0 °F89 %29.80 in10.0 miESE (110°)5.8 mphMostly Cloudy
1:28 PM80.6 °F77.0 °F89 %29.80 in10.0 miVariable3.5 mphMostly Cloudy
1:48 PM80.6 °F77.0 °F89 %29.79 in10.0 miNorth (10°)5.8 mphOvercast
1:58 PM78.8 °F75.0 °F88 %29.76 in10.0 miNNE (30°)4.6 mphOvercast
1:59 PM77.0 °F73.4 °F89 %29.79 in10.0 miNNE (20°)5.8 mphRainLight Rain
2:24 PM77.0 °F75.2 °F94 %29.79 in4.0 miVariable3.5 mphRainLight Rain
2:29 PM75.2 °F71.6 °F89 %29.79 in5.0 miEast (90°)4.6 mphRainLight Rain
2:39 PM78.8 °F75.2 °F89 %29.78 in10.0 miESE (120°)3.5 mphRainLight Rain
2:42 PM78.8 °F75.2 °F89 %29.78 in10.0 miSE (130°)5.8 mphPartly Cloudy
2:53 PM78.8 °F77.0 °F94 %29.78 in10.0 miSSE (160°)8.1 mphRainLight Rain
2:58 PM79.5 °F77.0 °F92 %29.75 in10.0 miSSE (160°)6.9 mph0.11 inRainLight Rain
3:10 PM78.8 °F75.2 °F89 %29.79 in10.0 miSouth (180°)8.1 mphMostly Cloudy
3:19 PM77.0 °F73.4 °F89 %29.79 in10.0 miSouth (170°)6.9 mphLight Drizzle
3:28 PM78.8 °F77.0 °F94 %29.78 in10.0 miSSW (200°)5.8 mphScattered Clouds
3:58 PM75.2 °F72.3 °F91 %29.75 in10.0 miSouth (180°)5.8 mph0.00 inClear
4:58 PM86.0 °F77.0 °F74 %29.78 in10.0 miWSW (250°)2.3 mphMostly Cloudy
5:08 PM86.0 °F77.0 °F74 %29.81 in10.0 miWNW (290°)3.5 mphScattered Clouds
5:58 PM82.4 °F75.2 °F79 %29.79 in10.0 miWNW (300°)4.6 mphScattered Clouds
6:58 PM77.0 °F74.3 °F91 %29.81 in10.0 miNNW (330°)3.5 mphClear
7:58 PM78.8 °F73.0 °F82 %29.83 in10.0 miNNW (340°)1.2 mphClear
8:58 PM76.6 °F35.6 °F23 %29.86 in10.0 miCalmClear
9:58 PM75.4 °F73.9 °F95 %29.86 in10.0 miCalmClear
10:58 PM75.7 °F74.7 °F96 %29.86 in10.0 miCalmClear
11:58 PM74.8 °F73.8 °F96 %29.84 in10.0 miCalmClear
Hourly data recorded from PGUA, located miles away from Mangilao, Guam







STORIES FROM OUR PARTNERS